Find Starlink 3619

NORAD ID: 51787 Int'l Des: 2022-017 Owner: SPXS Country: US Constellation: starlink operational
LEOCIRCULAR

リアルタイム位置

3D地球を読み込み中...

Starlink 3619について

説明を読み込み中...

次回通過

Passes for default location (London). Set your location on the main map for personalized predictions.

高度履歴

Loading altitude history...

軌道要素

1 51787U 22017V 26127.16142909 -.00004481 00000-0 -26364-3 0 9993
2 51787 53.2165 86.6294 0001351 85.2483 274.8664 15.08836487231101
Epoch: May 7, 2026 • Age: 12 hours

現在のステータス

高度 557.8 km
速度 7.58 km/s
衛星直下点 -49.73°S, 86.68°W
打ち上げ日 Feb 25, 2022
運用期間 4.1 years
タイプ internet

技術仕様

分類 Payload
質量 297.00 kg
乾燥質量 275.00 kg
総質量 297.00 kg
長さ 0.20 m
直径 2.80 m
スパン 9.00 m
形状 Box + pan
製造者 SPXS
バスタイプ Starlink
フェーズステータス In Orbit
所有者/国 SPXS/US

Most Searched